Thedford, NE

4:05 AM CDT on April 25, 2018 (GMT -0500)
Thedford

Weather History for KTIF - January, 2013

Change the Weather History Date:

Tuesday, January 1, 2013

  Actual Average (KANW) Record (KANW)
Temperature  
Mean Temperature 21 °F -  
Max Temperature 32 °F 35 °F 60 °F (1998)
Min Temperature 10 °F 14 °F -18 °F (2018)
Degree Days  
Heating Degree Days 44    
Moisture  
Dew Point 14 °F    
Average Humidity 76    
Maximum Humidity 91    
Minimum Humidity 55    
Precipitation  
Precipitation 0.00 in - - ()
Sea Level Pressure  
Sea Level Pressure 30.08 in    
Wind  
Wind Speed 7 mph (West)    
Max Wind Speed 13 mph    
Max Gust Speed -    
Visibility 10 miles    
Events      
Averages and records for this station are not official NWS values.
T = Trace of Precipitation, MM = Missing Value Source: NWS Daily Summary

Daily Weather History Graph

Daily Weather History Graph

Search for Another Location

Airport or City:

Astronomy

Jan. 01, 2013 Rise Set
Actual Time 8:10 AM CST 5:22 PM CST
Civil Twilight 7:38 AM CST 5:53 PM CST
Nautical Twilight 7:03 AM CST 6:28 PM CST
Astronomical Twilight 6:29 AM CST 7:02 PM CST
Moon 9:59 PM CST (1/1) 10:19 AM CST (1/1)
Length of Visible Light 10h 14m
Length of Day
9h 11m
Waning Gibbous, 83% of the Moon is Illuminated
Jan 1
Waning Gibbous
Jan 4
Last Quarter
Jan 11
New
Jan 18
First Quarter
Jan 26
Full

Hourly Weather History & Observations

Time (CST) Temp. Windchill Dew Point Humidity Pressure Visibility Wind Dir Wind Speed Gust Speed Precip Events Conditions
12:15 AM 22.8 °F 16.7 °F 18.9 °F 85% 30.12 in 10.0 mi SW 4.6 mph - N/A   Overcast
12:35 AM 23.0 °F 14.7 °F 19.0 °F 85% 30.12 in 10.0 mi WSW 6.9 mph - N/A   Overcast
12:55 AM 23.4 °F 14.3 °F 19.0 °F 84% 30.12 in 10.0 mi WSW 8.1 mph - N/A   Overcast
1:15 AM 23.4 °F 13.5 °F 18.9 °F 83% 30.11 in 10.0 mi SW 9.2 mph - N/A   Overcast
1:35 AM 23.0 °F 12.4 °F 18.5 °F 83% 30.11 in 10.0 mi WSW 10.4 mph - N/A   Overcast
1:55 AM 22.6 °F 13.4 °F 18.3 °F 83% 30.11 in 10.0 mi WSW 8.1 mph - N/A   Overcast
2:15 AM 21.2 °F 13.6 °F 17.4 °F 85% 30.11 in 10.0 mi SW 5.8 mph - N/A   Overcast
2:35 AM 20.3 °F 11.5 °F 16.9 °F 87% 30.11 in 10.0 mi SW 6.9 mph - N/A   Scattered Clouds
3:15 AM 19.2 °F 12.5 °F 16.2 °F 88% 30.11 in 10.0 mi SSW 4.6 mph - N/A   Clear
3:35 AM 18.7 °F 10.6 °F 15.6 °F 88% 30.11 in 10.0 mi SSW 5.8 mph - N/A   Clear
3:55 AM 18.1 °F 8.9 °F 15.3 °F 88% 30.11 in 10.0 mi SSW 6.9 mph - N/A   Clear
4:15 AM 16.9 °F 9.8 °F 14.2 °F 89% 30.11 in 10.0 mi SW 4.6 mph - N/A   Clear
4:35 AM 15.1 °F 6.4 °F 12.9 °F 91% 30.11 in 10.0 mi SW 5.8 mph - N/A   Clear
5:15 AM 14.2 °F 4.1 °F 11.5 °F 89% 30.10 in 7.0 mi WSW 6.9 mph - N/A   Clear
5:35 AM 13.6 °F 7.7 °F 11.1 °F 90% 30.10 in 7.0 mi WSW 3.5 mph - N/A   Clear
5:55 AM 13.1 °F 4.0 °F 10.4 °F 89% 30.10 in 7.0 mi WSW 5.8 mph - N/A   Clear
6:15 AM 13.6 °F 4.6 °F 11.1 °F 90% 30.10 in 7.0 mi WSW 5.8 mph - N/A   Clear
6:35 AM 13.5 °F 5.8 °F 10.9 °F 90% 30.10 in 10.0 mi West 4.6 mph - N/A   Clear
6:55 AM 12.7 °F 3.6 °F 9.9 °F 88% 30.10 in 10.0 mi WSW 5.8 mph - N/A   Clear
7:15 AM 11.5 °F 3.5 °F 8.4 °F 87% 30.11 in 10.0 mi WSW 4.6 mph - N/A   Clear
7:35 AM 10.9 °F 0.2 °F 7.7 °F 87% 30.11 in 10.0 mi WSW 6.9 mph - N/A   Clear
7:55 AM 12.7 °F 6.7 °F 9.5 °F 87% 30.11 in 10.0 mi West 3.5 mph - N/A   Clear
8:15 AM 10.0 °F - 7.0 °F 87% 30.11 in 10.0 mi Calm Calm - N/A   Clear
8:35 AM 11.8 °F 3.9 °F 8.6 °F 87% 30.11 in 10.0 mi West 4.6 mph - N/A   Clear
8:55 AM 11.8 °F 3.9 °F 8.6 °F 87% 30.12 in 10.0 mi West 4.6 mph - N/A   Clear
9:15 AM 14.9 °F 6.1 °F 11.3 °F 86% 30.11 in 10.0 mi West 5.8 mph - N/A   Clear
9:35 AM 15.8 °F 5.1 °F 11.7 °F 84% 30.12 in 10.0 mi West 8.1 mph - N/A   Clear
9:55 AM 17.6 °F 7.3 °F 13.1 °F 83% 30.12 in 10.0 mi West 8.1 mph - N/A   Clear
10:15 AM 18.7 °F 8.6 °F 13.5 °F 80% 30.13 in 10.0 mi West 8.1 mph - N/A   Clear
10:35 AM 20.3 °F 10.6 °F 14.0 °F 77% 30.14 in 10.0 mi West 8.1 mph - N/A   Clear
10:55 AM 22.3 °F 14.9 °F 14.9 °F 73% 30.14 in 10.0 mi West 5.8 mph - N/A   Clear
11:15 AM 24.4 °F 15.6 °F 16.0 °F 70% 30.14 in 10.0 mi West 8.1 mph - N/A   Clear
11:35 AM 25.5 °F 15.5 °F 15.8 °F 67% 30.14 in 10.0 mi WNW 10.4 mph - N/A   Clear
11:55 AM 26.6 °F 19.1 °F 16.5 °F 66% 30.13 in 10.0 mi West 6.9 mph - N/A   Clear
12:15 PM 28.0 °F 19.3 °F 17.1 °F 63% 30.12 in 10.0 mi WNW 9.2 mph - N/A   Clear
12:35 PM 28.4 °F 19.7 °F 16.7 °F 62% 30.11 in 10.0 mi West 9.2 mph - N/A   Clear
12:55 PM 29.3 °F 20.8 °F 16.2 °F 58% 30.10 in 10.0 mi West 9.2 mph - N/A   Clear
1:15 PM 30.6 °F 21.2 °F 16.5 °F 56% 30.09 in 10.0 mi West 11.5 mph - N/A   Clear
1:35 PM 31.1 °F 22.4 °F 17.2 °F 57% 30.08 in 10.0 mi WNW 10.4 mph - N/A   Clear
1:55 PM 31.8 °F 22.3 °F 17.6 °F 56% 30.07 in 10.0 mi WNW 12.7 mph - N/A   Clear
2:15 PM 32.0 °F 23.0 °F 17.6 °F 55% 30.07 in 10.0 mi WNW 11.5 mph - N/A   Clear
2:35 PM 32.4 °F 24.0 °F 18.3 °F 56% 30.07 in 10.0 mi West 10.4 mph - N/A   Clear
2:55 PM 32.5 °F 24.8 °F 18.3 °F 56% 30.06 in 10.0 mi WNW 9.2 mph - N/A   Clear
3:15 PM 32.2 °F 22.7 °F 18.5 °F 57% 30.05 in 10.0 mi WNW 12.7 mph - N/A   Clear
3:35 PM 32.0 °F 22.5 °F 18.7 °F 58% 30.05 in 10.0 mi West 12.7 mph - N/A   Clear
3:55 PM 32.0 °F 24.8 °F 18.9 °F 58% 30.05 in 10.0 mi West 8.1 mph - N/A   Clear
4:15 PM 32.0 °F 24.2 °F 18.9 °F 58% 30.05 in 10.0 mi West 9.2 mph - N/A   Clear
4:35 PM 30.9 °F 22.2 °F 18.5 °F 60% 30.04 in 10.0 mi West 10.4 mph - N/A   Clear
5:15 PM 27.5 °F 20.2 °F 17.6 °F 66% 30.04 in 10.0 mi WSW 6.9 mph - N/A   Clear
5:35 PM 24.8 °F 17.9 °F 16.5 °F 71% 30.04 in 10.0 mi WSW 5.8 mph - N/A   Clear
5:55 PM 24.6 °F 15.8 °F 16.5 °F 71% 30.04 in 10.0 mi WSW 8.1 mph - N/A   Clear
6:15 PM 24.1 °F 16.0 °F 16.0 °F 71% 30.03 in 10.0 mi WSW 6.9 mph - N/A   Clear
6:35 PM 21.7 °F 12.3 °F 14.9 °F 75% 30.03 in 10.0 mi WSW 8.1 mph - N/A   Clear
6:55 PM 20.7 °F 11.9 °F 14.5 °F 77% 30.03 in 10.0 mi SW 6.9 mph - N/A   Scattered Clouds
7:15 PM 21.2 °F 12.6 °F 14.9 °F 77% 30.03 in 10.0 mi WSW 6.9 mph - N/A   Scattered Clouds
7:35 PM 21.4 °F 12.8 °F 14.7 °F 75% 30.03 in 10.0 mi West 6.9 mph - N/A   Clear
7:55 PM 20.8 °F 13.2 °F 14.4 °F 76% 30.03 in 10.0 mi West 5.8 mph - N/A   Clear
8:15 PM 20.1 °F 12.3 °F 13.6 °F 76% 30.03 in 10.0 mi West 5.8 mph - N/A   Clear
8:35 PM 20.1 °F 11.3 °F 13.5 °F 75% 30.02 in 10.0 mi West 6.9 mph - N/A   Clear
8:55 PM 20.7 °F 14.2 °F 13.3 °F 73% 30.02 in 10.0 mi WNW 4.6 mph - N/A   Clear
9:15 PM 17.8 °F 10.9 °F 11.8 °F 78% 30.02 in 10.0 mi West 4.6 mph - N/A   Clear
9:35 PM 20.3 °F 10.6 °F 13.1 °F 74% 30.01 in 10.0 mi West 8.1 mph - N/A   Clear
9:55 PM 19.0 °F 11.1 °F 12.2 °F 75% 30.02 in 10.0 mi West 5.8 mph - N/A   Clear
10:15 PM 19.9 °F 9.3 °F 12.6 °F 73% 30.01 in 10.0 mi West 9.2 mph - N/A   Clear
10:35 PM 19.6 °F 8.9 °F 12.2 °F 73% 30.01 in 10.0 mi West 9.2 mph - N/A   Clear
10:55 PM 18.0 °F 6.9 °F 11.3 °F 75% 30.01 in 10.0 mi West 9.2 mph - N/A   Clear
11:15 PM 17.2 °F 6.8 °F 10.9 °F 76% 30.01 in 10.0 mi West 8.1 mph - N/A   Clear
11:35 PM 15.8 °F 10.2 °F 10.2 °F 79% 30.02 in 10.0 mi West 3.5 mph - N/A   Clear
11:55 PM 15.6 °F 10.0 °F 10.4 °F 80% 30.01 in 10.0 mi WSW 3.5 mph - N/A   Clear